www.pogodaiklimat.ru

Погода и климат >> Архив погоды >> Словакия >> Мильхостов


ПОГОДА в Мильхостове

  • Прогноз погоды в Мильхостове
  • Монитор погоды в Мильхостове

АРХИВ ПОГОДЫ в Мильхостове

Время (UTC), дата Ветер
(напр.,м/с)
 
Видим.   Явления Облачность Т
(С)
Тd
(С)
f
(%)
Тe
(С)
Тes
(С)
Комфортность P
(гПа)
Po
(гПа)
Тmin
(С)
Tmax
(С)
R
(мм)
R24
(мм)
S
(см)
19 10.06 20 км 1/1 1500 м
[Sc diur, vesp Ci ing]
+24.7 +18.6 69 1015.2 1003.0
20 10.06 20 км 4/3 1500 м
[Sc Ac cuf Ci fib]
+22.0 +17.4 75 1015.4 1003.1
21 10.06 н/о н/о +19.8 +17.6 87 1015.2 1002.8
22 10.06 штиль 0 н/о н/о +18.8 +17.0 89 +20 +20 1015.3 1002.9
23 10.06 н/о н/о +17.8 +16.3 91 1016.0 1003.5
00 11.06 СЗ 1 н/о н/о +17.4 +15.9 91 +18 +18 1016.0 1003.5
01 11.06 н/о н/о +16.6 +15.5 93 1015.9 1003.4
02 11.06 СЗ 2 н/о н/о +17.5 +16.0 91 +18 +18 1015.9 1003.4
03 11.06 СЗ 2 н/о н/о +17.6 +16.1 91 +18 +18 1015.8 1003.3
04 11.06 н/о н/о +18.2 +16.4 89 1016.2 1003.7
05 11.06 С 1 н/о н/о +21.6 +18.6 83 +26 +26 душно 1016.2 1003.9
06 11.06 нст 1 40 км ясно +25.5 +17.7 62 +30 +37 душно 1016.2 1004.1 +16.2
07 11.06 35 км ясно +26.4 +18.0 60 1016.0 1003.9
08 11.06 35 км ясно +27.6 +18.1 56 1015.8 1003.7
09 11.06 нст 2 40 км 1/1 1200 м
[Cu hum]
+28.8 +18.3 53 +34 +48 очень
душно
1015.5 1003.5
10 11.06 40 км 1/1 1200 м
[Cu hum]
+29.9 +17.7 48 1015.2 1003.3
11 11.06 ЮВ 4 40 км 1/1 1200 м
[Cu hum]
+30.9 +16.2 41 +34 +45 душно 1014.7 1002.8
12 11.06 В 4 40 км 3/3 1200 м
[Cu med, cong]
+31.7 +15.3 37 +34 +42 душно 1014.1 1002.2
13 11.06 Ю 3 40 км 3/3 1200 м
[Cu med, cong]
+32.2 +15.3 36 +34 +42 душно 1013.7 1001.8
14 11.06 Ю 2 40 км 3/3 1200 м
[Cu med, cong]
+31.5 +16.3 40 +34 +42 душно 1013.6 1001.7
15 11.06 ЮВ 2 30 км гроза без осадков 5/5 1000 м
[Cb cap]
+31.9 +14.1 34 +33 +37 жарко 1013.4 1001.5
16 11.06 СЗ 3 20 км гроза без осадков {ливн. осадки} 9/8 900 м
[Cb cap Ac cuf Ci ing]
+24.7 +17.0 62 +28 +29 душно 1014.4 1002.2
17 11.06 30 км в посл. час гроза {ливн. осадки} 4/3 1000 м
[Cb cap Ac cuf Ci ing]
+23.3 +19.3 78 1014.3 1002.1
18 11.06 нст 2 30 км {гроза, ливн. осадки} 4/1 1000 м
[Sc diur, vesp Ci fib]
+24.1 +19.2 74 +29 +29 душно 1014.5 1002.3 +32.5 0.4
19 11.06 30 км 4/1 1000 м
[Sc diur, vesp Ci fib]
+22.3 +18.7 80 1015.0 1002.8
20 11.06 СЗ 2 20 км 4/1 1000 м
[Sc diur, vesp Ac trans Ci fib]
+21.0 +18.2 84 +26 +26 душно 1015.2 1002.9
21 11.06 н/о н/о +19.4 +17.2 87 1015.1 1002.7
22 11.06 н/о н/о +19.7 +16.9 84 1015.0 1002.6
23 11.06 н/о н/о +18.4 +16.9 91 1015.3 1002.9
00 12.06 нст 1 н/о н/о +18.9 +17.4 91 +21 +21 комфорт 1015.6 1003.2
01 12.06 С 1 н/о н/о +17.8 +17.0 95 +19 +19 1015.2 1002.8
02 12.06 н/о н/о +17.2 +16.4 95 1015.3 1002.8
03 12.06 С 1 н/о н/о +16.4 +15.6 95 +17 +17 1015.3 1002.8
04 12.06 н/о н/о +18.4 +16.7 90 1015.4 1003.0
05 12.06 С 3 н/о н/о +20.1 +17.9 87 +24 +24 комфорт 1015.6 1003.3
06 12.06 С 2 30 км 3/0
[Ac trans Ci fib]
+22.6 +18.6 78 +28 +33 душно 1015.6 1003.3 +16.3
07 12.06 30 км 4/0
[Ac trans Ci fib]
+25.6 +17.8 62 1015.6 1003.5
08 12.06 30 км 4/1 1500 м
[Cu hum Ac trans]
+25.6 +18.8 66 1015.7 1003.6
09 12.06 нст 1 30 км 6/1 1500 м
[Sc Ac As]
+26.9 +19.8 65 +33 +43 очень
душно
1015.5 1003.4
10 12.06 30 км 6/1 1300 м
[Cu hum Ac As]
+28.7 +19.4 57 1015.1 1003.1
11 12.06 30 км 4/1 1300 м
[Cu hum Ac trans]
+30.3 +19.4 52 1014.5 1002.6
12 12.06 ЮЗ 2 30 км 4/1 1380 м
[Cu med, cong Ac trans Ci fib]
+31.5 +17.8 44 +36 +48 очень
душно
1013.8 1001.9
13 12.06 СВ 2 30 км 5/3 1380 м
[Cu med, cong Ac cuf Ci fib]
+31.5 +19.2 48 +37 +45 очень
душно
1013.3 1001.4
14 12.06 СВ 3 30 км 5/4 1380 м
[Cu med, cong Ac cuf Ci fib]
+30.4 +20.1 54 +37 +41 очень
душно
1013.3 1001.4
15 12.06 В 3 30 км 4/3 1380 м
[Cu med, cong Ac cuf]
+31.8 +18.1 44 +36 +40 очень
душно
1013.0 1001.2
16 12.06 В 4 н/о н/о +30.9 +18.6 48 +36 +36 очень
душно
1013.1 1001.2
17 12.06 СВ 6 н/о н/о +26.7 +16.4 53 +30 +30 душно 1013.5 1001.4
18 12.06 В 3 30 км 4/3 1300 м
[Sc diur, vesp Ac cuf Ci ing]
+25.1 +15.7 56 +28 +28 жарко 1013.5 1001.4 +32.0
19 12.06 20 км 3/1 1300 м
[Sc diur, vesp Ci fib]
+23.1 +16.4 66 1014.0 1001.8
20 12.06 З 1 20 км 1/0
[Ac lent Ci fib]
+21.5 +16.2 72 +25 +25 комфорт 1014.4 1002.1
21 12.06 н/о н/о +19.2 +16.1 82 1014.6 1002.2
22 12.06 штиль 0 н/о н/о +18.6 +15.8 84 +19 +19 1014.9 1002.5
23 12.06 штиль 0 н/о н/о +18.0 +16.2 89 +18 +18 1015.2 1002.8
00 13.06 штиль 0 н/о н/о +17.0 +15.5 91 +17 +17 1015.4 1002.9
01 13.06 н/о н/о +16.4 +15.1 92 1015.2 1002.7
02 13.06 штиль 0 н/о н/о +15.9 +15.1 95 +16 +16 1015.3 1002.8
03 13.06 штиль 0 н/о н/о +15.5 +14.2 92 +15 +15 1015.5 1002.9
04 13.06 н/о н/о +17.3 +15.8 91 1015.7 1003.2
05 13.06 н/о н/о +21.6 +17.6 78 1015.6 1003.3
06 13.06 нст 2 35 км ясно +23.8 +16.1 62 +27 +33 жарко 1016.0 1003.8 +15.4
07 13.06 В 3 35 км 1/0
[Ci fib]
+25.3 +16.2 57 +29 +37 душно 1016.0 1003.9
08 13.06 35 км 1/0
[Ci fib]
+26.6 +17.4 57 1016.0 1003.9
09 13.06 В 2 35 км 1/1 1200 м
[Cu hum Ci fib]
+28.0 +18.4 56 +33 +47 очень
душно
1015.7 1003.7
10 13.06 35 км 1/1 1200 м
[Cu hum Ci fib]
+29.6 +19.3 54 1015.7 1003.7
11 13.06 Ю 3 35 км 1/1 1200 м
[Cu hum Ci fib]
+30.8 +18.6 48 +36 +49 очень
душно
1015.2 1003.3
12 13.06 ЮВ 3 35 км 1/1 1200 м
[Cu hum]
+31.7 +18.3 45 +36 +49 очень
душно
1014.9 1003.0
13 13.06 Ю 3 35 км 1/1 1080 м
[Cu med, cong]
+32.2 +18.1 43 +37 +47 очень
душно
1014.4 1002.6
14 13.06 Ю 2 35 км 1/1 1080 м
[Cu med, cong]
+32.3 +17.0 40 +36 +45 очень
душно
1014.0 1002.2
15 13.06 ЮВ 3 35 км 1/1 1080 м
[Cu med, cong]
+32.0 +17.9 43 +36 +41 очень
душно
1014.0 1002.1
16 13.06 ЮВ 3 н/о н/о +31.3 +18.0 45 +36 +36 очень
душно
1013.6 1001.7
17 13.06 ЮВ 3 н/о н/о +30.2 +17.0 45 +34 +34 очень
душно
1013.5 1001.6
18 13.06 ЮВ 2 40 км ясно +28.3 +18.1 54 +33 +33 очень
душно
1013.4 1001.4 +32.4
19 13.06 ЮВ 1 30 км ясно +25.9 +18.3 63 +31 +31 очень
душно
1013.9 1001.8
20 13.06 20 км ясно +23.8 +18.7 73 1015.0 1002.8
21 13.06 СВ 1 н/о н/о +20.8 +18.6 87 +26 +26 душно 1015.2 1002.9
22 13.06 н/о н/о +20.4 +18.2 87 1015.7 1003.4
23 13.06 штиль 0 н/о н/о +19.3 +16.9 86 +21 +21 комфорт 1016.1 1003.7
00 14.06 нст 1 н/о н/о +18.4 +17.2 93 +20 +20 1015.6 1003.2
01 14.06 штиль 0 н/о н/о +18.0 +16.5 91 +18 +18 1015.8 1003.3
02 14.06 З 1 н/о н/о +17.6 +16.6 94 +19 +19 1015.8 1003.3
03 14.06 С 2 н/о н/о +16.6 +15.8 95 +17 +17 1016.3 1003.8
04 14.06 С 1 н/о н/о +18.9 +17.6 92 +21 +21 комфорт 1017.1 1004.7
05 14.06 н/о н/о +21.9 +19.1 84 1017.2 1004.9
06 14.06 нст 2 30 км ясно +24.9 +19.5 72 +30 +36 душно 1017.3 1005.1 +16.6
07 14.06 35 км 1/1 1000 м
[Cu med, cong]
+27.8 +18.8 58 1017.6 1005.5
08 14.06 35 км 1/1 1000 м
[Cu med, cong]
+28.8 +18.9 55 1017.8 1005.8
09 14.06 В 3 35 км 1/1 1000 м
[Cu med, cong]
+29.9 +19.0 52 +35 +47 очень
душно
1017.7 1005.7
10 14.06 В 2 35 км 1/1 1000 м
[Cu med, cong]
+30.9 +19.0 49 +36 +52 опасность
солнечного
удара
1017.6 1005.7
11 14.06 35 км 1/1 1000 м
[Cu med, cong Ci fib]
+31.9 +18.5 45 1017.4 1005.5
12 14.06 СВ 2 35 км 3/1 1000 м
[Cu med, cong Ci sp]
+32.7 +18.9 44 +38 +52 опасность
солнечного
удара
1016.9 1005.0
13 14.06 35 км 3/1 1000 м
[Cu med, cong Ci sp]
+33.3 +17.9 40 1016.3 1004.5
14 14.06 В 2 35 км 3/1 1000 м
[Cu med, cong Ci sp]
+33.5 +16.8 37 +37 +45 очень
душно
1016.2 1004.4
15 14.06 нст 2 35 км 6/1 1000 м
[Cu med, cong Ci sp]
+31.7 +20.4 51 +38 +44 очень
душно
1015.7 1003.8
16 14.06 СВ 3 н/о н/о +31.6 +19.6 49 +37 +37 очень
душно
1015.9 1004.0
17 14.06 В 2 н/о н/о +28.8 +19.2 56 +34 +34 очень
душно
1016.8 1004.8
18 14.06 СВ 5 30 км 9/4 900 м
[Cb cap Ci sp]
+26.6 +16.8 55 +30 +30 душно 1017.2 1005.1 +33.9
19 14.06 З 2 30 км 8/5 1000 м
[Sc diur, vesp Ci sp]
+24.5 +16.2 60 +28 +28 душно 1017.3 1005.1
20 14.06 20 км 8/5 1080 м
[Sc diur, vesp Ci sp]
+22.9 +18.4 76 1017.7 1005.4
21 14.06 н/о н/о +22.9 +18.0 74 1017.7 1005.4
22 14.06 н/о н/о +22.8 +19.4 81 1016.6 1004.4
23 14.06 н/о н/о +20.4 +18.7 90 1017.4 1005.0
00 15.06 С 2 н/о н/о +20.1 +18.4 90 +24 +24 комфорт 1017.5 1005.1
01 15.06 СЗ 2 н/о н/о +19.4 +17.5 89 +22 +22 комфорт 1017.2 1004.8
02 15.06 н/о н/о +18.8 +17.0 89 1017.1 1004.7
03 15.06 н/о н/о +17.6 +16.3 92 1017.2 1004.7
04 15.06 н/о н/о +19.2 +17.2 88 1016.9 1004.5
05 15.06 С 2 н/о н/о +21.9 +17.9 78 +27 +27 душно 1016.8 1004.5
06 15.06 С 3 30 км 1/0
[Ci fib]
+23.8 +18.5 72 +28 +33 душно 1016.8 1004.6 +17.5
07 15.06 30 км ясно +25.8 +18.5 64 1016.6 1004.5
08 15.06 штиль 0 30 км ясно +28.6 +17.2 50 +33 +51 опасность
солнечного
удара
1016.2 1004.2
09 15.06 В 2 30 км ясно +30.1 +17.9 48 +35 +51 опасность
солнечного
удара
1016.0 1004.0
10 15.06 40 км 1/0
[Ci fib]
+31.3 +19.3 49 1015.5 1003.6
11 15.06 В 3 40 км 1/1 1500 м
[Cu hum]
+31.5 +19.2 48 +37 +50 очень
душно
1015.0 1003.1
12 15.06 СВ 2 40 км 1/1 1500 м
[Cu med, cong]
+32.3 +19.6 47 +38 +53 опасность
солнечного
удара
1014.0 1002.2
13 15.06 40 км 3/3 1380 м
[Cu med, cong]
+32.9 +17.6 40 1013.2 1001.4
14 15.06 40 км 1/1 1380 м
[Cu med, cong]
+33.2 +17.8 40 1012.9 1001.1
15 15.06 В 3 40 км 1/1 1380 м
[Cu med, cong]
+33.2 +19.3 44 +39 +43 очень
душно
1012.3 1000.5
16 15.06 В 3 40 км 1/1 1500 м
[Cu hum]
+32.7 +18.1 42 +37 +40 очень
душно
1012.2 1000.4
17 15.06 В 3 30 км 1/0
[Ac lent Ci fib]
+31.5 +18.8 47 +37 +38 очень
душно
1012.2 1000.3
18 15.06 В 2 25 км 1/1 1500 м
[Sc Ci fib]
+29.1 +19.4 56 +35 +35 очень
душно
1011.9 1000.0 +33.6
19 15.06 З 1 20 км 3/1 1500 м
[Sc Ci fib]
+26.6 +19.5 65 +32 +32 очень
душно
1012.4 1000.4
20 15.06 З 1 20 км 1/0
[Ci fib]
+24.3 +19.8 76 +30 +30 очень
душно
1012.9 1000.8
21 15.06 н/о н/о +22.3 +19.5 84 1012.6 1000.4
22 15.06 н/о н/о +21.1 +18.8 87 1012.6 1000.3
23 15.06 штиль 0 н/о н/о +20.7 +18.8 89 +25 +25 комфорт 1012.8 1000.5
00 16.06 штиль 0 н/о н/о +19.9 +18.0 89 +23 +23 комфорт 1012.6 1000.3
01 16.06 СЗ 1 н/о н/о +19.3 +18.1 93 +22 +22 комфорт 1012.6 1000.3
02 16.06 С 1 н/о н/о +18.7 +17.0 90 +21 +21 комфорт 1013.1 1000.7
03 16.06 н/о н/о +18.5 +17.8 96 1013.6 1001.2
04 16.06 С 2 н/о н/о +20.0 +18.7 92 +24 +24 комфорт 1013.6 1001.3
05 16.06 С 4 н/о н/о +21.9 +19.4 86 +27 +27 душно 1014.0 1001.8
06 16.06 С 3 25 км 3/0
[Ac trans]
+24.6 +19.9 75 +30 +34 очень
душно
1014.1 1002.0 +17.7
07 16.06 С 2 30 км 1/0
[Ci fib]
+26.9 +19.8 65 +33 +42 очень
душно
1013.8 1001.8
08 16.06 С 2 30 км 1/0
[Ci fib]
+29.0 +19.9 58 +35 +48 очень
душно
1013.6 1001.6
09 16.06 нст 1 30 км 1/0
[Ci fib]
+30.2 +20.5 56 +37 +56 опасность
солнечного
удара
1013.5 1001.6
10 16.06 30 км 3/3 1500 м
[Cu hum]
+31.3 +20.3 52 1013.1 1001.2
11 16.06 С 2 30 км 3/3 1380 м
[Cu med, cong Ac cuf]
+32.1 +18.4 44 +37 +49 очень
душно
1012.8 1001.0
12 16.06 нст 2 30 км 4/4 1380 м
[Cu med, cong Ac cuf]
+32.8 +19.3 45 +38 +48 очень
душно
1012.2 1000.4
13 16.06 СВ 3 30 км 4/3 1380 м
[Cu med, cong Ac cuf Ci ing]
+33.0 +19.5 45 +39 +46 очень
душно
1011.5 999.7
14 16.06 С 3 30 км 4/3 1380 м
[Cu med, cong Ci ing]
+33.0 +19.9 46 +39 +45 очень
душно
1011.3 999.5
15 16.06 СВ 3 30 км 4/3 1380 м
[Cu med, cong Ac cuf Ci ing]
+32.9 +19.1 44 +38 +42 очень
душно
1010.7 998.9
16 16.06 С 6 25 км 8/5 1200 м
[Cb cap Ac cuf Ci ing]
+28.7 +20.2 60 +35 +36 очень
душно
1011.0 999.1
17 16.06 СЗ 6 7000 м гроза, ливневой дождь 9/9 900 м
[Cb cap]
+22.7 +17.6 73 +28 +28 душно 1014.1 1001.9
18 16.06 СЗ 3 15 км в посл. час гроза {ливн. осадки} 9/9 900 м
[Cb cap]
+21.3 +16.7 75 +25 +25 комфорт 1014.9 1002.6 +33.7 0.6
19 16.06 15 км гроза без осадков 9/9 900 м
[Cb cap]
+21.0 +18.4 85 1015.3 1003.0
20 16.06 СЗ 3 15 км в посл. час гроза 9/9 1000 м
[Sc]
+21.1 +19.0 88 +25 +25 комфорт 1015.9 1003.6
21 16.06 СЗ 5 н/о н/о +20.6 +18.2 86 +24 +24 комфорт 1015.8 1003.5
22 16.06 СЗ 4 н/о н/о +20.2 +18.2 88 +24 +24 комфорт 1016.6 1004.2
23 16.06 ЮЗ 2 н/о н/о +19.6 +17.7 89 +23 +23 комфорт 1018.6 1006.2
00 17.06 Ю 2 н/о н/о +18.7 +17.9 95 +20 +20 1019.6 1007.1 6
01 17.06 н/о н/о +18.6 +18.0 96 1019.3 1006.8
02 17.06 С 6 н/о н/о +18.6 +18.0 96 +19 +19 1016.5 1004.1
03 17.06 СЗ 5 н/о н/о +18.9 +17.9 94 +20 +20 1016.1 1003.7
04 17.06 С 6 н/о н/о +19.2 +18.4 95 +21 +21 комфорт 1016.3 1003.9
05 17.06 СЗ 4 н/о н/о +19.9 +18.6 92 +23 +23 комфорт 1017.3 1004.9
06 17.06 СЗ 6 20 км {дождь} 9/9 1000 м
[Cu Sc]
+20.2 +18.0 87 +23 +23 комфорт 1017.6 1005.2 +18.4 16
07 17.06 СЗ 5 10 км слаб. дождь 10/10 1000 м
[Sc]
+20.3 +17.7 85 +24 +24 комфорт 1018.2 1005.8
08 17.06 С 6 20 км в посл. час дождь 10/10 1000 м
[Sc]
+20.1 +17.7 86 +23 +23 комфорт 1018.2 1005.8
09 17.06 С 7 20 км {дождь} 10/10 1000 м
[Sc]
+20.0 +17.6 86 +22 +22 комфорт 1018.5 1006.1
10 17.06 СЗ 7 20 км 9/9 1000 м
[Sc]
+20.5 +17.1 81 +24 +24 комфорт 1018.7 1006.3
11 17.06 СЗ 7 20 км 9/9 1000 м
[Sc]
+20.3 +16.1 77 +23 +23 комфорт 1018.6 1006.2
12 17.06 СЗ 8 20 км {дождь} 9/9 1000 м
[Cu Sc]
+20.2 +14.6 70 +22 +22 комфорт 1018.6 1006.2 0.0
13 17.06 С 9 30 км 8/4 1000 м
[Sc Ac trans]
+20.7 +14.6 68 +23 +23 комфорт 1018.2 1005.8
14 17.06 С 9 40 км 8/4 1000 м
[Cu Sc Ac trans]
+21.1 +14.0 64 +24 +24 комфорт 1018.4 1006.0
15 17.06 С 8 40 км 4/1 1000 м
[Cu med, cong Ac lent]
+21.2 +13.4 61 +24 +24 комфорт 1017.6 1005.2
16 17.06 С 9 н/о н/о +20.6 +12.6 60 +22 +22 комфорт 1017.6 1005.2
17 17.06 СЗ 8 н/о н/о +20.1 +12.6 62 +21 +21 комфорт 1017.6 1005.2
18 17.06 СЗ 7 40 км 3/3 1000 м
[Sc Ci fib]
+19.3 +11.6 61 +20 +20 1017.8 1005.3 +21.8 0.0
19 17.06 СЗ 6 40 км 4/1 1000 м
[Sc Ac lent Ci fib]
+18.6 +12.1 66 +19 +19 1018.4 1005.9
20 17.06 С 6 30 км 4/1 1000 м
[Sc Ac lent Ci fib]
+18.7 +11.8 64 +19 +19 1018.3 1005.8

 

Местоположение метеостанции Мильхостов (Словакия): широта 48.67 долгота 21.73 высота над уровнем моря 106 м.

В архиве по умолчанию представлена погода в Мильхостове за последнюю неделю. Архивные данные за месяц целиком и за предыдущие месяцы, начиная с января 2011 года, Вы можете получить, выбрав интересующий диапазон дат из раскрывающегося списка и нажав кнопку "Ввод!".


*Определитесь, кто Вы:
робот инопланетянин человек

Внимание! Время в таблицах - всемирное. Для получения местного времени необходимо прибавить поправку, которая равна 1 ч.

Смотрите также архив погоды в соседних городах и на ближайших метеорологических станциях:

Погода в Каменице-над-Сирочью (Словакия) (35 км)
Погода в Кошице (Словакия) (37 км)
Погода в Ужгороде (Закарпатская область, Украина) (40 км)
Погода в Захони (Венгрия) (44 км)
Погода в Прешове (Словакия) (50 км)
Погода в Перечине (Закарпатская область, Украина) (55 км)
Погода на Станции Kojsovska Hola (Словакия) (56 км)
Погода в Великом Березном (Закарпатская область, Украина) (60 км)
Погода в Стропкове (Словакия) (61 км)
Погода в Ньиредьхазе (Венгрия) (79 км)

Пояснения к столбцам:

Ветер - указаны скорость ветра в м/с - средняя за 10 мин, порывы в срок и между сроками (в фигурных скобках) и направление, откуда дует ветер: С - северный, СВ - северо-восточный, В - восточный, ЮВ - юго-восточный, Ю - южный, ЮЗ - юго-западный, З - западный, СЗ - северо-западный.
Видимость - горизонтальная дальность видимости в метрах или километрах. При видимости от 1 до 10 км при отсутствии осадков обычно наблюдается дымка, при ухудшении видимости до 1 км и менее - туман. В сухую погоду видимость может ухудшаться дымом, пылью или мглою.
Явления - указаны атмосферные явления, наблюдавшиеся в срок или в последний час перед сроком; фигурными скобками обозначены явления, наблюдавшиеся между сроками (за 1-3 часа до срока); квадратными скобками обозначены град или гололедные отложения с указанием их диаметра в мм.
Облачность - указаны через наклонную черту общая и нижняя облачность в баллах и высота нижней границы облаков в метрах; квадратными скобками обозначены формы облаков: Ci - перистые, Cs - перисто-слоистые, Cc - перисто-кучевые, Ac - высококучевые, As - высокослоистые, Sc - слоисто-кучевые, Ns - слоисто-дождевые, Cu - кучевые, Cb - кучево-дождевые. Подробнее классификацию облаков см. в Атласе облаков (PDF).
T - Температура воздуха - температура, измеренная на высоте 2 м над землей.
Td - Температура точки росы - температура, при понижении до которой содержащийся в воздухе водяной пар достигнет насыщения.
f - Относительная влажность воздуха - влажноcть воздуха, измеренная на высоте 2 м над землей.
Te - Эффективная температура - температура, которую ощущает одетый по сезону человек в тени. Характеристика душности погоды. При расчете учитывается влияние влажности воздуха и скорости ветра на теплоощущения человека.
Tes - Эффективная температура на солнце - температура, которую ощущает человек, с поправкой на солнечный нагрев. Характеристика знойности погоды. Зависит от высоты солнца над горизонтом, облачности и скорости ветра. Ночью, в пасмурную погоду, а также при ветре 12 м/с и более поправка равна нулю.
P - Атмосферное давление - приведенное к уровню моря атмосферное давление.
Po - Атмосферное давление - измеренное на уровне метеостанции атмосферное давление.
Tmin - Минимальная температура - минимум температуры воздуха на высоте 2 м над землей.
Tmax - Максимальная температура - максимум температуры воздуха на высоте 2 м над землей.
R - Количество осадков - Количество выпавших осадков за период времени, мм. При наведении курсора мыши на число - период времени, за который выпало указанное количество осадков.
R24 - Количество осадков - Количество выпавших осадков за 24 часа, мм.
S - Снежный покров - Высота снежного покрова, см. При наведении курсора мыши на число - состояние снежного покрова и степень покрытия местности в баллах.